Weather History for Hutchinson, KS

Change the Weather History Date:

Thursday, July 11, 2013

  Actual Average Record
Temperature  
Mean Temperature 83 °F -  
Max Temperature 95 °F 90 °F 106 °F (2001)
Min Temperature 73 °F 65 °F 57 °F (1999)
Cooling Degree Days 18    
Growing Degree Days 33 (Base 50)    
Moisture  
Dew Point 63 °F    
Average Humidity 51    
Maximum Humidity 71    
Minimum Humidity 33    
Precipitation  
Precipitation 0.00 in - - ()
Sea Level Pressure  
Sea Level Pressure 29.94 in    
Wind  
Wind Speed 11 mph (ESE)    
Max Wind Speed 18 mph    
Max Gust Speed 26 mph    
Visibility 10 miles    
Events      
Averages and records for this station are not official NWS values.
T = Trace of Precipitation, MM = Missing Value Source: NWS Daily Summary

Daily Weather History Graph

Daily Weather History Graph

Search for Another Location

Airport:

Trip Planner

Search our weather history database for the weather conditions in past years. The results will help you decide how hot, cold, wet, or windy it might be!

Date:

Astronomy

Jul. 11, 2013 Rise Set
Actual Time 6:18 AM CDT 8:55 PM CDT
Civil Twilight 5:47 AM CDT 9:26 PM CDT
Nautical Twilight 5:08 AM CDT 10:04 PM CDT
Astronomical Twilight 4:25 AM CDT 10:47 PM CDT
Moon 9:34 AM CDT (7/11) 10:41 PM CDT (7/11)
Length of Visible Light 15h 38m
Length of Day
14h 37m
Waxing Crescent, 11% of the Moon is Illuminated
Jul 11
Waxing Crescent
Jul 15
First Quarter
Jul 22
Full
Jul 29
Last Quarter
Aug 6
New

Hourly Weather History & Observations

Time (CDT) Temp. Heat Index Dew Point Humidity Pressure Visibility Wind Dir Wind Speed Gust Speed Precip Events Conditions
12:52 AM 81.0 °F 81.6 °F 60.1 °F 49% 29.97 in 10.0 mi ESE 6.9 mph - N/A   Clear
1:52 AM 80.1 °F 80.9 °F 60.1 °F 50% 29.95 in 10.0 mi ESE 9.2 mph - N/A   Clear
2:52 AM 79.0 °F - 60.1 °F 52% 29.94 in 10.0 mi ESE 8.1 mph - N/A   Clear
3:52 AM 79.0 °F - 61.0 °F 54% 29.93 in 10.0 mi ESE 9.2 mph - N/A   Clear
4:52 AM 77.0 °F - 62.1 °F 60% 29.94 in 10.0 mi ESE 8.1 mph - N/A   Scattered Clouds
5:52 AM 77.0 °F - 62.1 °F 60% 29.94 in 10.0 mi East 10.4 mph - N/A   Partly Cloudy
6:52 AM 77.0 °F - 62.1 °F 60% 29.96 in 10.0 mi ESE 9.2 mph - N/A   Clear
7:52 AM 77.0 °F - 62.1 °F 60% 29.96 in 10.0 mi SE 8.1 mph - N/A   Clear
8:52 AM 78.1 °F - 62.1 °F 58% 30.00 in 10.0 mi ENE 9.2 mph - N/A   Partly Cloudy
9:52 AM 75.9 °F - 62.1 °F 62% 30.03 in 10.0 mi NNE 15.0 mph 20.7 mph N/A   Mostly Cloudy
10:52 AM 73.9 °F - 64.0 °F 71% 30.02 in 10.0 mi ENE 17.3 mph 26.5 mph N/A   Clear
11:52 AM 82.0 °F 83.0 °F 62.1 °F 51% 30.00 in 10.0 mi East 17.3 mph 25.3 mph N/A   Clear
12:52 PM 86.0 °F 86.8 °F 63.0 °F 46% 29.98 in 10.0 mi ESE 18.4 mph 26.5 mph N/A   Clear
1:52 PM 88.0 °F 90.7 °F 66.9 °F 49% 29.95 in 10.0 mi SE 13.8 mph 21.9 mph N/A   Clear
2:52 PM 91.0 °F 92.6 °F 64.0 °F 41% 29.93 in 10.0 mi SSE 12.7 mph - N/A   Clear
3:52 PM 93.9 °F 94.0 °F 61.0 °F 33% 29.91 in 10.0 mi SSE 16.1 mph 20.7 mph N/A   Clear
4:52 PM 93.9 °F 95.6 °F 64.0 °F 37% 29.89 in 10.0 mi SE 13.8 mph - N/A   Clear
5:52 PM 93.9 °F 95.6 °F 64.0 °F 37% 29.87 in 10.0 mi ESE 12.7 mph 20.7 mph N/A   Clear
6:52 PM 91.9 °F 93.3 °F 64.0 °F 39% 29.87 in 10.0 mi SE 13.8 mph - N/A   Clear
7:52 PM 89.1 °F 91.0 °F 64.9 °F 45% 29.88 in 10.0 mi ESE 13.8 mph - N/A   Clear
8:52 PM 84.9 °F 86.6 °F 64.9 °F 51% 29.88 in 10.0 mi ESE 11.5 mph - N/A   Clear
9:52 PM 82.9 °F 84.6 °F 64.9 °F 54% 29.90 in 10.0 mi ESE 11.5 mph - N/A   Clear
10:52 PM 81.0 °F 82.2 °F 63.0 °F 54% 29.92 in 10.0 mi ESE 9.2 mph - N/A   Clear
11:52 PM 79.0 °F - 62.1 °F 56% 29.92 in 10.0 mi ESE 8.1 mph - N/A   Clear